Date,TemperatureHighF,TemperatureAvgF,TemperatureLowF,DewpointHighF,DewpointAvgF,DewpointLowF,HumidityHigh,HumidityAvg,HumidityLow,PressureMaxIn,PressureMinIn,WindSpeedMaxMPH,WindSpeedAvgMPH,GustSpeedMaxMPH,PrecipitationSumIn
2013-1-1,76.1,65.5,54.7,62.8,58.6,54.2,100,80,56,30.16,29.98,10,1,24,0.00
2013-1-2,77.4,68.4,60.8,71.7,67.1,59.9,100,96,81,30.00,29.93,7,1,17,0.00
2013-1-3,71.1,64.0,58.4,69.3,63.9,58.4,100,100,94,30.11,29.96,9,1,19,0.25
2013-1-4,60.4,57.7,54.5,60.4,57.7,54.5,100,100,100,30.22,30.09,6,0,16,0.12
2013-1-5,71.8,61.6,54.5,63.8,59.1,53.7,100,92,75,30.24,30.12,6,1,14,0.01
2013-1-6,77.5,65.6,61.1,72.1,65.0,61.1,100,98,81,30.14,30.01,5,1,13,0.01
2013-1-7,66.6,62.4,58.3,64.8,61.0,55.4,100,95,83,30.15,30.04,6,2,18,0.04
2013-1-8,80.9,70.6,61.8,72.1,66.2,61.8,100,87,62,30.16,30.05,5,1,12,0.00
2013-1-9,82.2,74.2,68.8,73.9,69.6,65.6,100,87,61,30.22,30.10,7,1,16,0.00
2013-1-10,80.9,73.6,69.1,72.2,68.3,63.4,100,85,57,30.22,30.14,9,1,18,0.00
2013-1-11,82.0,72.4,65.4,71.9,66.4,62.3,100,84,53,30.20,30.06,8,1,18,0.00
2013-1-12,81.2,71.3,66.3,71.3,68.4,64.9,100,92,59,30.12,30.01,8,1,17,0.00
2013-1-13,78.9,71.8,66.9,70.3,67.3,63.9,100,87,63,30.10,29.99,6,0,13,0.00
2013-1-14,80.0,71.3,65.0,69.0,63.9,58.7,100,80,51,30.12,30.04,5,1,14,0.00
2013-1-15,80.5,70.5,62.7,69.5,65.1,60.9,100,85,56,30.08,29.99,7,1,16,0.00
2013-1-16,81.7,71.4,65.0,69.3,65.1,59.6,100,83,48,30.04,29.94,6,1,14,0.01
2013-1-17,69.8,62.4,53.1,69.8,58.8,44.3,100,89,63,30.10,29.92,13,5,31,0.19
2013-1-18,62.6,53.7,42.2,53.9,45.4,35.3,80,74,65,30.26,30.10,11,4,22,0.00
2013-1-19,73.9,64.1,53.5,60.1,55.2,46.8,90,74,60,30.22,30.06,6,2,17,0.00
2013-1-20,73.7,64.9,59.0,63.3,59.4,54.5,100,83,67,30.11,29.98,6,0,13,0.00
2013-1-21,73.2,64.7,59.9,62.7,57.3,52.0,90,77,63,30.04,29.97,8,1,17,0.00
2013-1-22,66.0,59.5,53.3,52.2,38.9,29.2,76,49,27,30.23,30.02,6,2,16,0.00
2013-1-23,65.8,56.1,45.8,45.8,38.7,31.6,79,54,32,30.31,30.21,8,1,14,0.00
2013-1-24,68.9,57.7,47.0,56.2,49.4,42.2,97,76,44,30.29,30.20,8,1,17,0.00
2013-1-25,73.2,61.1,52.4,61.3,53.8,45.3,100,81,40,30.26,30.13,4,0,11,0.01
2013-1-26,71.6,62.0,51.8,60.9,57.3,-99.9,100,87,60,30.22,30.12,7,1,16,0.01
2013-1-27,76.8,65.4,54.6,63.3,58.6,53.4,100,82,45,30.24,30.15,3,0,11,0.01
2013-1-28,79.2,70.1,63.4,67.9,63.9,60.1,100,83,53,30.26,30.14,7,1,16,0.00
2013-1-29,82.3,71.2,63.4,70.9,66.5,63.4,100,87,55,30.17,30.02,8,2,18,0.00
2013-1-30,79.3,72.6,66.9,69.7,67.4,64.6,98,85,63,30.02,29.84,18,8,33,0.00
2013-1-31,70.9,56.8,51.3,69.4,44.8,32.8,100,66,41,30.18,29.85,15,5,31,0.07
2013-2-1,65.2,55.5,46.1,45.3,36.2,25.9,70,51,23,30.31,30.17,7,2,16,0.00
2013-2-2,69.5,56.9,46.9,47.7,41.6,27.4,75,59,21,30.25,30.10,6,1,16,0.00
2013-2-3,67.8,56.5,45.3,54.8,49.5,42.6,99,79,58,30.14,30.04,7,1,17,0.00
2013-2-4,67.5,56.1,47.4,53.4,44.3,32.6,93,68,30,30.09,29.99,6,0,11,0.00
2013-2-5,75.4,60.9,48.3,57.6,48.2,-99.9,86,66,38,30.04,29.94,7,1,16,0.00
2013-2-6,76.2,67.5,61.0,62.5,59.2,-99.9,95,78,54,30.04,29.96,3,0,10,0.00
2013-2-7,79.1,64.8,63.7,69.4,52.8,-99.9,100,82,53,29.99,29.81,16,5,27,0.10
2013-2-8,71.7,65.1,59.3,69.2,63.1,59.3,100,93,75,30.03,29.84,8,3,17,0.00
2013-2-9,75.1,63.6,55.0,59.3,55.8,51.1,100,78,43,30.14,30.01,5,1,16,0.00
2013-2-10,78.5,58.5,61.0,63.5,35.9,-99.9,93,69,54,30.18,30.06,14,2,21,0.00
2013-2-11,79.6,57.6,64.5,68.1,32.5,-99.9,97,65,62,30.13,30.02,12,3,20,0.00
2013-2-12,79.0,71.8,67.1,73.1,69.3,-99.9,100,94,80,30.03,29.88,15,5,26,0.00
2013-2-13,78.2,70.3,59.5,75.3,69.5,57.8,100,97,88,29.93,29.78,14,6,25,0.49
2013-2-14,64.0,60.9,58.6,62.7,60.7,58.6,100,99,92,29.99,29.87,7,0,13,0.26
2013-2-15,65.8,58.1,54.2,58.7,54.6,50.6,100,89,63,30.03,29.91,4,0,11,0.02
2013-2-16,66.0,57.5,51.4,54.1,46.5,33.3,93,68,44,30.08,29.89,16,6,29,0.00
2013-2-17,53.0,46.2,40.1,35.3,25.4,16.7,63,44,34,30.29,30.08,11,4,22,0.00
2013-2-18,66.7,52.5,38.5,50.6,37.4,25.0,78,58,33,30.31,30.14,6,1,17,0.00
2013-2-19,75.4,65.0,54.9,64.3,57.2,49.3,100,78,53,30.16,30.02,12,3,20,0.00
2013-2-20,75.4,64.7,59.5,65.1,60.9,53.4,100,88,63,30.06,29.95,6,0,14,0.01
2013-2-21,80.2,52.3,59.1,66.2,25.4,-99.9,98,67,59,30.04,29.92,8,1,16,0.00
2013-2-22,81.8,57.6,64.0,71.4,31.7,-99.9,100,68,63,30.00,29.93,10,2,22,0.00
2013-2-23,77.2,72.0,68.8,74.5,71.5,68.8,100,99,91,29.94,29.84,12,4,25,0.00
2013-2-24,78.7,71.3,68.4,74.3,70.7,68.4,100,98,86,29.90,29.81,10,1,17,0.00
2013-2-25,81.5,73.8,68.1,73.7,70.6,66.6,100,91,62,29.84,29.71,10,2,19,0.00
2013-2-26,75.3,71.3,66.6,74.9,69.8,63.5,100,95,80,29.83,29.63,14,3,31,0.37
2013-2-27,68.3,64.1,59.5,64.7,57.7,52.4,95,80,63,29.93,29.81,7,2,14,0.00
2013-2-28,70.0,63.3,56.7,58.1,52.7,47.2,88,69,55,29.94,29.85,8,2,17,0.00
2013-3-1,59.5,56.9,51.6,48.6,43.0,37.1,71,60,49,29.97,29.86,9,3,19,0.00
2013-3-2,56.8,53.4,47.7,43.0,39.2,35.3,72,59,49,30.03,29.93,13,6,25,0.01
2013-3-3,53.5,47.6,42.2,39.2,34.3,27.6,68,60,53,30.11,29.94,11,4,28,0.00
2013-3-4,60.9,51.6,42.3,41.7,35.6,27.7,84,56,40,30.18,30.08,6,1,14,0.00
2013-3-5,71.5,59.7,44.3,62.6,51.7,41.1,93,76,49,30.11,29.98,9,2,17,0.00
2013-3-6,66.4,58.4,52.8,65.7,47.3,38.3,98,68,48,30.09,29.90,16,8,27,0.02
2013-3-7,59.8,51.7,44.1,45.9,38.2,32.2,91,61,39,30.18,30.08,9,2,17,0.00
2013-3-8,68.3,56.3,44.1,51.9,45.3,38.0,100,71,34,30.18,30.07,7,1,13,0.00
2013-3-9,72.7,61.4,51.1,53.7,48.9,42.1,94,66,34,30.16,30.07,7,1,17,0.00
2013-3-10,77.2,66.0,58.1,57.6,55.7,52.1,94,71,47,30.10,29.98,10,2,21,0.00
2013-3-11,76.7,68.1,61.3,62.5,58.6,-99.9,95,75,51,30.03,29.81,12,4,24,0.00
2013-3-12,69.6,63.4,58.4,67.9,60.0,-99.9,100,90,77,29.99,29.78,10,4,24,0.34
2013-3-13,67.0,60.4,56.2,54.8,43.5,-99.9,85,58,26,30.13,29.98,12,4,21,0.00
2013-3-14,60.4,56.1,50.7,52.0,37.2,-99.9,77,51,25,30.23,30.11,10,3,19,0.00
2013-3-15,67.6,55.7,43.8,48.3,41.0,-99.9,94,62,28,30.24,30.11,7,1,14,0.00
2013-3-16,74.6,60.6,48.2,59.2,49.8,41.7,100,74,32,30.13,30.01,7,1,14,0.00
2013-3-17,76.2,64.1,52.8,60.7,57.8,52.5,100,82,53,30.07,29.93,9,1,19,0.01
2013-3-18,73.7,67.5,62.7,70.0,63.9,-99.9,100,92,80,29.97,29.81,11,2,24,0.00
2013-3-19,82.3,67.3,62.6,72.2,59.8,-99.9,100,88,53,29.95,29.83,8,1,14,0.00
2013-3-20,71.2,65.4,59.2,68.6,63.8,-99.9,100,96,78,29.91,29.75,10,1,21,0.16
2013-3-21,65.1,57.7,49.5,59.9,42.8,-99.9,100,63,27,29.94,29.82,10,2,19,0.01
2013-3-22,75.7,61.7,48.1,70.0,52.4,-99.9,100,76,42,29.95,29.83,7,1,14,1.11
2013-3-23,79.3,61.0,65.3,76.7,45.7,-99.9,100,86,89,29.91,29.73,14,3,24,0.01
2013-3-24,78.0,72.0,69.1,75.8,70.1,-99.9,100,99,93,29.76,29.58,18,6,30,0.00
2013-3-25,68.9,61.3,57.0,68.9,49.8,38.2,100,67,43,30.00,29.69,17,6,28,0.00
2013-3-26,59.3,53.6,47.9,45.3,36.8,31.5,61,53,45,30.20,29.99,15,6,30,0.00
2013-3-27,53.6,48.8,42.1,41.1,34.8,28.3,77,59,44,30.28,30.17,11,3,22,0.00
2013-3-28,65.7,55.8,45.4,46.2,38.2,29.1,89,56,28,30.25,30.15,8,2,16,0.00
2013-3-29,72.9,59.6,48.3,51.9,45.8,33.7,94,65,25,30.27,30.14,7,1,13,0.00
2013-3-30,74.4,62.9,50.7,58.8,51.5,45.1,92,70,38,30.19,30.07,10,2,19,0.00
2013-3-31,77.0,67.4,58.0,63.3,57.9,51.3,98,74,42,30.10,29.94,13,3,21,0.00
2013-4-1,78.8,71.7,66.8,69.8,66.2,62.9,100,84,60,29.97,29.89,12,3,21,0.00
2013-4-2,80.6,70.3,63.5,67.8,64.6,61.0,100,84,59,30.03,29.94,6,1,13,0.01
2013-4-3,83.3,73.0,64.3,71.8,67.2,61.6,100,84,54,30.01,29.87,10,3,26,0.01
2013-4-4,73.5,69.9,66.8,71.9,69.2,66.7,100,98,80,29.97,29.79,11,2,21,0.51
2013-4-5,70.8,65.6,61.4,67.9,61.8,-99.9,100,90,64,29.93,29.74,11,4,22,0.18
2013-4-6,72.7,63.3,55.0,61.8,56.3,51.7,92,79,55,30.04,29.93,7,2,17,0.00
2013-4-7,80.9,69.8,60.9,64.0,60.2,55.5,100,74,44,30.09,29.98,6,1,14,0.00
2013-4-8,83.8,73.3,67.4,66.6,62.0,53.4,91,70,36,30.06,29.97,7,2,18,0.00
2013-4-9,82.6,73.2,67.1,69.4,63.5,-99.9,100,76,52,30.09,29.99,9,2,18,0.00
2013-4-10,85.1,76.1,66.8,68.7,64.9,62.1,97,70,47,30.04,29.90,9,2,18,0.00
2013-4-11,87.0,77.1,72.5,74.6,70.4,-99.9,100,83,58,29.91,29.73,13,5,25,0.00
2013-4-12,78.3,75.7,71.5,77.0,74.4,-99.9,100,96,87,29.85,29.70,19,5,30,0.03
2013-4-13,84.0,74.4,68.9,71.2,68.6,64.0,100,84,58,29.91,29.81,5,1,12,0.00
2013-4-14,83.3,74.9,67.3,74.9,70.6,61.9,99,87,69,29.93,29.78,13,5,27,0.06
2013-4-15,85.8,75.6,67.9,70.2,65.8,61.9,91,73,52,30.00,29.85,6,1,17,0.00
2013-4-16,90.0,79.0,70.3,74.2,70.1,66.4,100,76,47,30.06,29.95,8,2,17,0.00
2013-4-17,86.0,78.0,69.3,70.8,65.9,59.9,100,69,42,30.07,29.94,8,2,20,0.00
2013-4-18,86.9,78.2,71.1,73.7,68.6,64.4,97,74,49,29.97,29.87,8,3,20,0.00
2013-4-19,86.1,78.8,73.7,75.7,72.8,66.8,100,83,53,29.93,29.86,15,6,30,0.00
2013-4-20,76.7,68.0,60.7,75.6,64.4,-99.9,100,90,78,30.08,29.90,10,2,20,0.02
2013-4-21,79.8,68.8,60.5,72.7,65.1,-99.9,100,90,70,30.07,29.96,7,1,17,0.08
2013-4-22,78.9,70.9,66.4,71.7,68.0,-99.9,100,92,72,30.01,29.91,7,1,20,0.35
2013-4-23,82.3,71.9,65.2,67.9,62.8,-99.9,100,78,53,30.04,29.94,7,2,16,0.00
2013-4-24,84.4,72.1,64.3,68.4,62.3,-99.9,98,75,31,30.07,30.00,7,1,17,0.00
2013-4-25,82.5,73.5,64.8,69.4,65.7,-99.9,100,80,56,30.13,30.03,8,1,16,0.00
2013-4-26,85.3,75.3,67.1,70.2,65.6,-99.9,97,75,48,30.17,30.08,7,1,16,0.00
2013-4-27,83.9,76.2,70.4,71.4,67.0,-99.9,100,75,48,30.14,30.01,8,2,17,0.00
2013-4-28,84.7,76.1,70.4,68.6,64.5,-99.9,87,70,44,30.05,29.90,9,3,21,0.00
2013-4-29,83.2,74.9,69.1,73.1,64.1,-99.9,96,74,54,29.95,29.83,7,1,17,0.01
2013-4-30,87.4,76.0,67.7,73.8,69.6,63.5,100,83,45,29.92,29.83,7,1,16,0.47
2013-5-1,74.3,71.2,67.4,74.3,70.7,-99.9,100,99,96,29.93,29.84,10,2,18,0.77
2013-5-2,78.5,71.6,66.3,74.6,70.3,66.3,100,96,83,29.90,29.74,5,0,14,0.01
2013-5-3,80.2,73.6,68.8,73.5,69.7,67.0,100,88,71,29.75,29.65,10,1,18,0.38
2013-5-4,79.0,72.0,67.2,70.7,67.9,-99.9,100,89,69,29.75,29.62,12,2,22,0.00
2013-5-5,72.8,68.1,63.9,68.5,57.1,-99.9,100,71,44,29.87,29.73,12,4,22,0.03
2013-5-6,71.2,67.9,65.0,63.5,55.7,-99.9,80,66,56,29.95,29.83,8,2,17,0.00
2013-5-7,75.2,68.3,60.7,62.5,56.5,-99.9,89,69,53,29.99,29.90,9,2,18,0.00
2013-5-8,77.2,70.3,61.8,64.5,61.0,57.4,94,74,52,30.07,29.96,7,1,17,0.00
2013-5-9,82.3,71.9,63.2,68.3,64.1,60.6,99,78,49,30.08,30.01,8,1,13,0.00
2013-5-10,87.8,76.3,65.6,74.4,68.0,61.5,100,78,43,30.07,29.92,9,1,16,0.00
2013-5-11,86.5,76.9,72.3,77.5,72.1,-99.9,100,88,58,29.98,29.92,10,2,19,0.01
2013-5-12,84.2,75.4,71.1,75.9,69.2,-99.9,100,85,58,29.98,29.87,6,1,16,0.00
2013-5-13,81.4,74.2,68.5,72.4,59.5,-99.9,98,64,33,30.07,29.94,11,3,20,0.00
2013-5-14,80.5,71.2,60.4,60.5,47.0,36.9,72,44,24,30.15,30.04,10,2,17,0.00
2013-5-15,84.0,74.7,66.8,63.6,59.5,53.2,81,60,35,30.14,30.00,8,1,18,0.00
2013-5-16,84.1,75.9,67.9,69.4,63.6,55.1,90,68,39,30.06,29.92,5,1,14,0.00
2013-5-17,84.5,77.2,70.4,69.7,66.0,62.7,89,70,50,30.02,29.95,7,1,13,0.00
2013-5-18,87.1,78.4,73.1,75.2,70.1,64.1,98,77,51,30.03,29.94,7,1,16,0.00
2013-5-19,86.2,78.4,70.1,75.0,68.7,64.3,100,74,49,30.02,29.91,6,1,16,0.00
2013-5-20,89.9,78.8,73.5,73.8,70.3,62.8,95,76,47,29.99,29.90,7,1,16,0.00
2013-5-21,87.6,76.4,70.8,73.6,71.6,66.7,100,87,54,29.96,29.84,9,1,25,0.17
2013-5-22,84.1,77.9,72.7,75.0,72.2,68.7,100,84,62,29.90,29.82,8,1,17,0.00
2013-5-23,85.1,79.2,72.6,74.4,72.8,70.5,98,82,64,29.94,29.84,8,2,16,0.00
2013-5-24,88.2,81.1,75.3,76.2,71.8,62.6,96,75,43,30.00,29.90,9,2,17,0.00
2013-5-25,89.4,81.8,73.0,71.4,64.1,57.7,82,57,35,30.09,29.98,8,2,19,0.00
2013-5-26,86.1,78.6,70.6,63.1,56.5,-99.9,76,50,29,30.14,30.02,8,2,19,0.00
2013-5-27,88.3,77.9,68.3,67.8,62.4,-99.9,89,62,39,30.10,29.97,11,2,21,0.00
2013-5-28,90.3,78.1,70.8,74.5,70.2,-99.9,97,79,50,30.07,29.93,14,5,26,0.02
2013-5-29,86.4,78.9,74.4,74.7,71.5,-99.9,97,79,62,30.01,29.95,16,6,28,0.01
2013-5-30,87.8,79.9,75.1,74.8,70.8,-99.9,97,77,58,30.01,29.92,15,7,27,0.00
2013-5-31,88.0,80.0,75.3,76.5,71.5,69.5,91,76,57,30.00,29.92,11,6,21,0.10
2013-6-1,88.5,79.1,72.8,76.1,74.1,71.6,100,86,59,29.98,29.87,8,3,17,2.02
2013-6-2,87.8,80.8,74.2,78.9,75.3,-99.9,100,85,64,29.92,29.82,7,1,14,0.00
2013-6-3,85.8,79.3,75.4,78.5,75.6,-99.9,100,90,71,29.92,29.82,10,2,18,0.00
2013-6-4,86.0,79.7,75.8,77.4,74.5,-99.9,100,86,58,29.93,29.85,11,1,20,0.03
2013-6-5,84.8,78.5,75.3,77.2,73.2,-99.9,99,86,64,29.93,29.81,11,2,21,0.12
2013-6-6,81.1,76.3,74.0,78.6,74.4,-99.9,100,96,84,29.81,29.57,19,10,34,3.33
2013-6-7,84.9,79.8,73.8,77.9,75.4,-99.9,100,88,75,29.88,29.70,9,2,17,0.00
2013-6-8,87.6,79.3,73.2,78.4,76.1,72.9,100,91,67,30.02,29.88,11,2,25,0.82
2013-6-9,89.3,79.3,72.8,79.5,75.7,72.8,100,90,61,30.02,29.93,7,1,16,0.11
2013-6-10,88.2,80.9,76.8,79.1,75.0,-99.9,100,85,62,30.01,29.94,7,1,16,0.00
2013-6-11,88.9,81.0,76.3,81.7,77.3,69.6,100,90,53,30.01,29.94,4,0,14,0.57
2013-6-12,88.8,81.8,74.8,79.6,75.5,72.3,100,83,60,30.01,29.93,6,1,14,0.20
2013-6-13,88.4,82.1,76.0,78.9,74.9,69.1,100,80,56,29.97,29.84,8,1,16,0.00
2013-6-14,87.0,81.9,77.7,76.4,74.5,71.0,92,79,60,29.89,29.81,9,2,17,0.00
2013-6-15,88.3,82.8,79.4,78.1,76.3,73.5,92,81,64,29.98,29.84,6,1,16,0.00
2013-6-16,89.5,83.3,79.4,78.9,76.0,-99.9,97,80,62,30.00,29.93,9,1,17,0.00
2013-6-17,91.2,84.0,77.9,79.0,74.8,-99.9,99,77,56,30.00,29.91,7,1,14,0.00
2013-6-18,90.1,83.5,76.8,78.5,75.6,-99.9,100,79,59,29.98,29.89,8,1,14,0.00
2013-6-19,90.9,84.0,78.6,80.0,76.3,72.4,99,79,57,29.96,29.89,0,0,0,0.00
2013-6-20,89.9,82.3,74.8,79.2,74.4,-99.9,100,79,52,30.02,29.93,5,0,14,0.24
2013-6-21,87.5,79.3,75.4,76.3,73.7,70.1,97,84,61,30.04,29.96,7,0,19,0.54
2013-6-22,90.0,81.3,75.8,77.8,73.1,68.8,97,78,52,30.04,29.96,5,1,16,0.05
2013-6-23,91.6,81.0,73.6,77.6,72.6,-99.9,100,80,44,30.05,29.98,7,1,18,0.20
2013-6-24,91.1,81.5,74.6,78.0,72.8,-99.9,100,81,50,30.10,29.98,6,1,14,1.12
2013-6-25,91.3,81.1,73.5,79.6,72.9,-99.9,100,82,50,30.09,29.94,9,1,21,0.73
2013-6-26,89.6,79.8,73.2,79.7,76.3,71.8,100,90,64,30.00,29.92,14,1,30,1.86
2013-6-27,90.5,80.8,73.8,80.9,73.6,-99.9,100,83,57,29.98,29.87,5,0,14,0.00
2013-6-28,88.8,82.4,76.7,79.2,75.8,-99.9,100,82,61,29.90,29.77,10,2,17,0.00
2013-6-29,84.1,79.8,75.1,78.8,76.0,-99.9,98,89,76,29.81,29.72,9,0,17,0.26
2013-6-30,87.5,81.7,77.0,79.5,77.2,74.7,100,87,71,29.79,29.72,11,2,21,0.28
2013-7-1,79.6,76.0,72.5,79.3,76.0,72.5,100,100,94,29.91,29.74,10,2,21,2.23
2013-7-2,88.4,78.7,73.0,80.5,75.0,72.0,100,90,62,30.00,29.87,10,2,22,1.81
2013-7-3,88.3,78.0,72.0,79.3,76.1,71.9,100,95,63,30.03,29.94,19,2,37,1.56
2013-7-4,88.7,78.7,73.2,79.2,75.7,72.5,100,92,60,30.07,29.97,9,2,21,0.64
2013-7-5,89.5,78.2,73.3,80.4,76.6,73.3,100,95,61,30.06,29.99,15,2,31,0.63
2013-7-6,90.3,82.5,76.0,79.8,76.2,71.1,100,83,54,30.03,29.94,10,2,19,0.17
2013-7-7,91.0,81.7,77.2,79.5,77.4,72.1,100,88,55,30.05,29.94,10,2,21,0.20
2013-7-8,90.8,82.0,74.2,79.7,76.6,70.6,100,86,52,30.08,29.99,9,0,17,0.60
2013-7-9,91.4,82.3,75.5,78.4,74.8,67.9,100,80,47,30.09,29.97,5,1,16,0.00
2013-7-10,88.3,81.5,75.3,77.3,73.6,-99.9,100,79,60,30.01,29.88,7,1,17,0.00
2013-7-11,87.5,79.3,74.9,80.9,76.9,-99.9,100,94,73,29.95,29.85,8,0,18,0.45
2013-7-12,87.9,80.2,75.4,80.0,75.3,-99.9,100,88,59,29.88,29.81,4,0,12,0.61
2013-7-13,85.2,77.3,74.0,80.5,76.1,-99.9,100,98,77,29.90,29.82,4,0,12,0.32
2013-7-14,85.4,78.5,74.9,81.7,77.0,-99.9,100,96,79,30.00,29.87,6,1,14,0.30
2013-7-15,88.9,79.8,75.6,78.6,74.3,-99.9,100,86,57,30.03,29.93,7,1,14,0.06
2013-7-16,89.6,78.4,76.0,77.3,73.1,-99.9,100,88,55,30.07,29.99,13,2,34,0.02
2013-7-17,90.4,78.1,69.3,78.9,74.9,-99.9,100,92,55,30.08,29.98,14,2,31,1.99
2013-7-18,87.1,78.3,73.9,78.0,75.1,70.5,100,91,61,30.04,29.96,7,1,21,0.03
2013-7-19,87.6,77.5,74.9,79.2,74.7,-99.9,100,94,65,30.05,29.97,13,1,21,0.28
2013-7-20,89.8,80.1,74.7,81.2,76.4,71.8,100,90,58,30.03,29.94,9,0,25,0.00
2013-7-21,90.2,82.9,76.1,81.6,77.3,74.8,100,85,62,30.04,29.96,7,1,16,0.00
2013-7-22,89.7,83.1,77.9,81.7,76.8,-99.9,100,83,62,30.05,29.98,8,2,17,0.00
2013-7-23,88.7,82.6,78.3,77.6,75.1,-99.9,95,80,59,30.01,29.90,11,1,16,0.00
2013-7-24,87.8,82.7,80.3,78.9,75.3,-99.9,95,80,66,29.93,29.83,11,3,22,0.01
2013-7-25,87.4,82.1,76.1,80.3,75.2,-99.9,100,83,67,29.93,29.80,11,4,19,0.78
2013-7-26,89.6,82.0,76.1,81.2,76.2,-99.9,100,86,54,29.94,29.88,12,1,21,0.25
2013-7-27,90.0,83.8,78.8,80.1,76.0,69.8,100,79,54,29.92,29.85,7,1,14,0.00
2013-7-28,89.4,81.9,77.0,79.0,75.2,-99.9,100,82,62,29.98,29.86,6,0,14,0.00
2013-7-29,92.8,83.7,75.3,78.4,74.8,65.8,100,77,42,30.06,29.95,6,0,11,0.00
2013-7-30,93.4,83.1,76.0,78.3,75.4,67.1,97,79,47,30.10,29.98,13,0,26,0.03
2013-7-31,92.3,82.5,76.0,80.8,75.6,65.8,100,82,43,30.06,29.93,5,0,14,0.00
2013-8-1,88.5,82.4,75.7,79.2,76.0,72.3,100,82,64,29.98,29.87,12,1,22,0.46
2013-8-2,91.4,84.5,77.2,78.7,75.4,72.2,100,76,56,29.96,29.86,6,0,12,0.00
2013-8-3,90.6,83.9,77.4,78.7,75.1,-99.9,98,77,58,30.02,29.92,10,1,19,0.00
2013-8-4,90.0,83.3,79.3,81.7,77.0,-99.9,100,84,63,30.01,29.92,8,1,20,0.43
2013-8-5,91.0,85.9,81.6,80.0,77.6,73.9,92,77,60,29.95,29.86,7,1,17,0.00
2013-8-6,90.2,81.9,77.6,83.1,77.3,-99.9,100,88,72,29.91,29.81,8,0,17,0.06
2013-8-7,92.1,81.7,75.3,80.9,77.8,70.1,100,89,52,29.89,29.81,9,1,25,0.27
2013-8-8,91.7,81.4,74.0,79.8,75.5,-99.9,100,87,55,29.94,29.84,9,2,17,0.37
2013-8-9,91.8,81.0,73.3,79.8,76.1,70.2,100,87,50,29.98,29.88,9,1,21,0.92
2013-8-10,92.4,83.1,76.5,80.1,75.1,-99.9,100,80,52,30.04,29.95,8,2,18,0.00
2013-8-11,92.9,85.0,79.3,79.5,75.7,-99.9,97,76,50,30.07,29.97,6,1,16,0.00
2013-8-12,92.8,84.8,78.6,81.9,78.6,74.0,99,83,55,30.05,29.93,4,0,11,0.01
2013-8-13,92.3,85.2,78.6,80.2,76.4,70.9,97,76,51,29.97,29.86,7,1,14,0.00
2013-8-14,92.1,84.9,78.6,80.6,76.2,70.1,98,76,56,29.92,29.84,9,1,14,0.00
2013-8-15,90.7,83.4,77.9,79.3,75.4,-99.9,97,79,58,29.95,29.86,9,2,18,0.03
2013-8-16,90.6,83.8,79.0,79.1,73.7,-99.9,96,75,54,29.96,29.88,8,1,17,0.01
2013-8-17,92.2,83.0,76.8,81.4,76.7,68.1,100,83,58,30.00,29.90,11,1,24,0.16
2013-8-18,90.0,80.7,76.0,81.4,77.0,-99.9,100,92,59,30.01,29.93,8,2,21,0.25
2013-8-19,93.4,80.6,72.4,81.0,75.4,-99.9,100,88,45,29.99,29.87,14,2,29,1.32
2013-8-20,92.1,80.2,73.1,80.9,75.5,69.4,100,88,53,30.00,29.90,9,1,21,0.49
2013-8-21,92.6,80.5,74.7,80.6,76.4,-99.9,100,90,54,30.03,29.90,9,1,22,0.23
2013-8-22,91.3,80.2,72.5,80.4,77.1,-99.9,100,92,57,30.01,29.90,8,1,17,1.28
2013-8-23,90.7,80.9,77.4,81.4,75.3,-99.9,100,87,55,29.94,29.88,7,1,18,0.00
2013-8-24,92.6,81.5,76.8,80.6,76.9,71.6,100,87,57,30.04,29.91,8,1,25,0.00
2013-8-25,88.5,79.3,74.6,78.3,76.1,-99.9,100,91,63,30.08,29.99,5,0,16,0.26
2013-8-26,89.9,79.6,74.9,78.7,75.9,72.0,100,90,56,30.07,29.93,8,1,20,1.94
2013-8-27,90.7,79.0,74.4,78.9,73.1,-99.9,100,88,48,29.98,29.90,7,1,17,0.46
2013-8-28,88.9,80.3,74.4,77.2,73.2,-99.9,100,82,52,29.99,29.89,8,1,25,0.02
2013-8-29,89.4,81.6,74.9,76.6,71.7,-99.9,99,76,56,29.96,29.87,8,1,16,0.00
2013-8-30,89.8,82.0,77.6,79.7,75.8,-99.9,97,84,62,29.92,29.82,5,0,13,0.08
2013-8-31,87.9,79.6,73.9,78.3,74.4,-99.9,100,87,62,29.92,29.81,4,0,16,0.40
2013-9-1,89.4,82.2,76.1,80.1,75.2,70.3,100,81,57,29.91,29.84,0,0,0,0.02
2013-9-2,89.3,81.6,76.1,81.4,73.6,-99.9,100,81,54,29.94,29.86,6,0,14,0.21
2013-9-3,89.7,82.8,76.3,78.9,74.3,-99.9,100,78,58,29.95,29.85,3,0,12,0.00
2013-9-4,92.0,80.8,72.2,79.4,75.5,-99.9,100,87,54,30.01,29.89,10,0,28,1.62
2013-9-5,92.6,81.4,74.9,81.0,74.7,-99.9,100,84,56,30.02,29.92,6,0,13,0.00
2013-9-6,91.2,81.5,76.0,81.6,75.4,-99.9,99,85,57,29.98,29.86,5,0,18,0.00
2013-9-7,89.4,79.5,71.8,76.2,72.9,66.8,100,82,50,29.95,29.84,9,1,13,0.00
2013-9-8,90.9,81.3,74.4,76.3,72.4,-99.9,100,78,50,29.89,29.78,7,1,17,0.00
2013-9-9,91.6,84.0,75.4,75.9,71.9,66.5,97,69,46,29.95,29.85,4,1,17,0.00
2013-9-10,91.4,83.4,75.8,76.3,71.8,64.9,98,71,44,30.00,29.91,7,2,18,0.00
2013-9-11,92.1,83.0,75.3,77.0,71.5,61.8,99,71,38,29.99,29.90,8,2,18,0.00
2013-9-12,88.7,80.6,76.0,77.8,73.4,-99.9,100,81,52,29.95,29.80,7,0,13,0.00
2013-9-13,87.3,80.7,74.6,77.0,74.9,71.5,100,84,64,29.83,29.73,5,0,12,0.00
2013-9-14,89.8,82.0,76.0,79.4,73.9,-99.9,100,79,58,29.90,29.76,2,0,12,0.00
2013-9-15,93.2,81.1,74.6,79.5,74.7,-99.9,97,83,51,30.00,29.88,18,2,34,0.02
2013-9-16,91.5,78.9,74.4,76.7,73.5,-99.9,100,88,53,29.99,29.89,11,1,31,0.71
2013-9-17,90.9,79.9,73.8,77.9,74.0,-99.9,100,85,51,29.98,29.85,10,1,22,0.03
2013-9-18,89.7,79.7,75.1,78.8,74.6,-99.9,100,87,58,29.95,29.88,10,1,20,0.17
2013-9-19,90.3,78.3,74.9,77.8,73.3,-99.9,100,89,55,29.98,29.88,8,1,18,0.98
2013-9-20,88.0,80.4,73.7,77.3,72.0,-99.9,100,79,49,29.95,29.81,6,1,16,0.00
2013-9-21,88.1,79.8,75.2,73.5,70.6,67.2,91,74,53,29.86,29.73,5,1,14,0.00
2013-9-22,86.9,81.3,76.5,80.9,77.6,73.6,100,89,73,29.77,29.67,12,1,18,0.48
2013-9-23,81.4,78.4,76.0,80.9,78.3,76.0,100,100,97,29.86,29.74,9,0,20,1.15
2013-9-24,81.1,76.8,73.9,80.7,75.5,-99.9,100,99,95,29.87,29.76,10,1,21,1.34
2013-9-25,80.7,74.0,69.4,80.7,71.7,-99.9,100,99,91,29.84,29.71,11,1,22,2.48
2013-9-26,87.4,81.1,75.2,80.9,78.2,-99.9,100,92,77,29.80,29.71,9,2,20,0.00
2013-9-27,84.3,76.6,70.3,74.8,71.2,67.5,100,85,58,29.89,29.80,6,1,16,0.00
2013-9-28,87.4,76.6,70.6,75.0,70.3,-99.9,100,85,53,29.92,29.84,6,1,17,0.00
2013-9-29,87.2,77.8,70.3,73.5,68.7,-99.9,100,78,49,29.92,29.82,5,0,13,0.00
2013-9-30,88.3,79.1,73.7,75.9,71.8,64.0,99,80,45,29.92,29.84,4,0,18,0.00
2013-10-1,89.5,80.7,74.6,76.6,72.2,-99.9,99,79,50,29.97,29.88,8,1,21,0.32
2013-10-2,89.0,79.6,73.9,73.9,69.0,-99.9,95,75,53,29.97,29.89,6,1,17,0.00
2013-10-3,88.2,80.0,74.2,76.0,70.9,-99.9,96,77,52,29.99,29.89,6,1,14,0.00
2013-10-4,87.3,80.5,77.2,77.7,73.2,-99.9,94,81,55,30.01,29.92,7,0,13,0.00
2013-10-5,88.7,81.1,75.6,75.8,72.4,68.0,92,76,51,29.98,29.86,9,1,17,0.00
2013-10-6,89.0,80.8,75.3,76.8,73.2,-99.9,99,80,50,29.91,29.78,5,0,13,0.00
2013-10-7,85.2,79.1,74.2,80.7,76.8,-99.9,100,94,83,29.79,29.67,13,4,26,0.64
2013-10-8,85.1,79.7,75.3,79.3,76.3,-99.9,100,91,78,29.88,29.72,8,1,19,0.09
2013-10-9,79.0,73.9,69.1,73.5,70.5,-99.9,97,90,77,29.97,29.87,9,1,17,0.00
2013-10-10,84.2,73.8,65.3,70.6,67.2,-99.9,100,82,57,29.99,29.89,4,0,13,0.00
2013-10-11,84.3,75.1,68.1,71.7,64.5,-99.9,100,75,52,29.97,29.88,6,0,12,0.00
2013-10-12,84.1,76.0,68.3,69.8,63.8,58.8,94,68,43,29.98,29.90,8,1,17,0.00
2013-10-13,85.2,75.7,67.3,68.8,63.0,-99.9,91,67,42,30.01,29.91,3,0,14,0.00
2013-10-14,82.9,75.0,68.8,69.5,66.4,-99.9,98,76,52,29.98,29.86,8,1,16,0.00
2013-10-15,80.5,72.3,66.6,73.9,70.1,66.6,100,93,78,29.94,29.83,5,1,16,0.00
2013-10-16,81.5,74.3,69.6,73.5,69.5,-99.9,100,87,60,29.90,29.83,2,0,11,0.00
2013-10-17,84.4,76.9,70.9,75.9,71.8,-99.9,100,86,64,29.90,29.83,4,0,11,0.00
2013-10-18,85.2,78.0,71.1,76.6,73.3,70.4,100,87,63,29.91,29.82,4,0,12,0.00
2013-10-19,87.4,79.4,73.9,78.0,75.5,72.2,100,89,63,29.87,29.80,4,0,12,0.00
2013-10-20,88.0,79.6,74.4,78.3,74.0,70.0,100,84,58,29.88,29.79,3,0,12,0.00
2013-10-21,87.5,78.9,74.4,77.9,73.7,-99.9,100,86,61,29.92,29.84,4,0,11,0.00
2013-10-22,86.1,77.7,72.3,78.1,74.1,70.9,100,90,63,29.87,29.76,11,2,19,0.16
2013-10-23,77.1,73.1,68.5,75.8,63.4,-99.9,100,75,45,29.94,29.74,10,2,22,0.02
2013-10-24,71.4,65.4,61.5,57.9,47.0,-99.9,76,54,43,30.10,29.94,5,1,14,0.00
2013-10-25,78.6,67.2,58.4,60.6,52.6,-99.9,94,65,36,30.17,30.07,8,1,14,0.00
2013-10-26,76.8,66.3,58.0,57.8,55.1,-99.9,94,71,48,30.14,30.03,9,1,13,0.01
2013-10-27,78.0,66.4,57.8,59.8,55.1,-99.9,99,70,43,30.06,29.98,3,0,12,0.00
2013-10-28,82.4,69.9,60.1,61.9,55.8,-99.9,86,63,34,30.12,30.02,5,1,12,0.00
2013-10-29,83.2,73.3,64.5,67.7,63.3,-99.9,100,75,46,30.16,30.05,5,1,14,0.00
2013-10-30,84.3,74.7,67.9,69.2,64.9,-99.9,96,76,50,30.15,30.01,4,0,12,0.00
2013-10-31,85.9,75.3,68.2,72.5,67.5,-99.9,100,79,50,30.06,29.90,7,1,16,0.00
2013-11-1,83.3,77.1,72.5,76.5,73.9,-99.9,100,91,73,29.92,29.81,12,2,22,0.00
2013-11-2,77.3,70.9,63.1,77.0,68.4,-99.9,100,93,72,29.92,29.74,9,1,17,0.85
2013-11-3,74.6,66.0,59.2,62.7,49.5,-99.9,98,60,27,30.06,29.91,6,2,16,0.00
2013-11-4,78.6,69.0,59.0,65.0,56.8,49.0,89,66,49,30.09,30.02,8,3,25,0.00
2013-11-5,81.9,73.3,63.9,69.6,66.5,63.8,100,81,59,30.08,29.97,9,2,20,0.00
2013-11-6,83.6,74.7,69.9,70.2,68.0,62.6,96,81,50,30.04,29.94,5,1,14,0.00
2013-11-7,80.5,72.5,67.8,70.8,68.3,64.9,100,88,62,29.99,29.90,5,0,12,0.00
2013-11-8,77.7,70.3,64.0,70.8,62.5,55.5,100,78,55,30.05,29.93,7,2,17,0.00
2013-11-9,80.6,72.6,63.9,66.1,63.4,60.9,91,74,60,30.09,30.01,9,1,20,0.00
2013-11-10,81.4,72.0,66.4,68.0,64.2,-99.9,95,79,54,30.10,30.00,4,0,12,0.00
2013-11-11,80.9,71.9,65.3,69.2,65.8,-99.9,100,84,58,30.09,29.99,6,0,14,0.01
2013-11-12,77.9,69.9,65.6,71.0,66.2,-99.9,100,91,62,30.05,29.95,6,1,13,0.00
2013-11-13,68.9,60.0,52.6,55.8,47.8,-99.9,79,65,57,30.24,30.02,10,4,22,0.00
2013-11-14,75.0,63.1,51.3,58.6,52.3,-99.9,91,70,50,30.23,30.09,8,2,17,0.00
2013-11-15,71.1,67.3,63.2,68.0,62.8,57.5,99,86,73,30.11,29.98,4,0,13,0.07
2013-11-16,73.5,70.3,67.1,72.9,69.8,67.1,100,98,94,30.05,29.95,5,0,17,0.17
2013-11-17,82.9,73.6,68.4,74.3,68.8,-99.9,100,87,64,30.01,29.92,4,0,12,0.00
2013-11-18,84.2,74.7,67.8,74.4,70.8,-99.9,100,90,62,29.95,29.86,5,0,13,0.00
2013-11-19,79.0,73.1,65.8,73.9,69.7,59.0,100,90,65,29.91,29.81,4,0,13,0.00
2013-11-20,79.5,69.9,63.4,72.7,65.1,-99.9,96,89,77,30.02,29.90,4,0,16,0.00
2013-11-21,83.3,75.0,70.6,72.2,70.9,68.7,99,88,62,30.10,30.01,8,2,20,0.00
2013-11-22,82.9,75.0,69.3,72.5,68.6,-99.9,100,83,58,30.11,30.01,5,1,14,0.00
2013-11-23,81.6,72.0,65.6,69.2,66.8,62.0,100,85,52,30.05,29.95,6,1,13,0.00
2013-11-24,69.3,65.0,57.8,69.1,60.9,52.0,100,87,74,30.16,29.97,8,2,22,0.00
2013-11-25,73.7,66.8,57.8,65.5,58.2,-99.9,90,75,61,30.15,29.98,10,3,22,0.00
2013-11-26,79.9,73.0,67.8,75.8,71.9,65.5,100,96,83,29.98,29.69,17,6,32,0.10
2013-11-27,71.3,62.3,46.2,71.3,55.5,38.6,100,79,64,30.14,29.67,16,7,28,0.00
2013-11-28,61.3,49.5,37.5,49.1,40.0,29.3,91,70,41,30.29,30.14,6,1,16,0.00
2013-11-29,71.2,59.7,50.4,56.1,51.4,-99.9,96,77,51,30.29,30.19,6,2,16,0.00
2013-11-30,75.6,64.3,55.0,62.8,58.0,48.7,99,81,59,30.25,30.10,6,1,16,0.00
2013-12-1,71.9,62.1,58.6,66.8,61.4,58.6,100,98,83,30.12,29.92,5,0,12,0.00
2013-12-2,69.1,63.5,58.4,64.5,57.8,51.5,100,83,55,29.92,29.78,6,0,12,0.00
2013-12-3,78.1,66.3,57.3,69.4,61.5,56.6,100,86,57,29.91,29.81,6,1,14,0.00
2013-12-4,80.6,71.4,65.6,72.4,68.6,65.3,100,92,61,30.00,29.89,4,0,11,0.00
2013-12-5,81.7,72.1,66.4,70.6,67.6,64.5,100,87,57,30.09,30.00,5,1,14,0.00
2013-12-6,82.3,73.4,67.1,74.2,70.3,67.1,100,91,65,30.10,30.01,8,2,19,0.00
2013-12-7,81.0,72.9,67.6,72.2,68.7,60.4,100,88,50,30.16,30.06,4,0,11,0.00
2013-12-8,81.3,73.1,67.3,72.8,68.6,64.6,100,87,62,30.15,30.02,4,0,14,0.00
2013-12-9,81.3,73.4,68.1,74.0,70.8,68.1,100,92,74,30.10,30.01,7,1,17,0.00
2013-12-10,80.4,72.6,65.3,72.8,69.4,65.3,100,91,64,30.10,30.01,7,1,17,0.00
2013-12-11,79.3,69.5,62.7,70.0,65.7,58.8,100,89,60,30.18,30.08,4,1,14,0.00
2013-12-12,71.9,63.5,54.3,66.4,50.8,33.1,100,70,26,30.25,30.13,6,2,17,0.00
2013-12-13,73.4,62.2,50.1,60.5,50.7,39.1,86,67,45,30.22,30.03,4,1,13,0.00
2013-12-14,80.1,72.7,65.5,73.0,68.4,61.0,98,87,69,30.03,29.86,11,4,28,0.00
2013-12-15,73.6,67.0,58.6,73.6,64.3,55.4,100,91,75,30.07,29.81,9,3,20,0.00
2013-12-16,60.5,54.7,47.5,55.1,46.4,41.9,91,75,52,30.17,30.05,5,1,16,0.00
2013-12-17,69.0,56.2,46.6,52.9,44.9,38.2,91,68,36,30.20,30.09,3,0,11,0.00
2013-12-18,69.9,59.0,48.6,53.5,48.3,39.6,99,71,34,30.23,30.14,6,1,14,0.00
2013-12-19,74.8,61.4,50.2,58.9,50.6,43.4,86,69,47,30.21,30.09,2,0,13,0.00
2013-12-20,80.8,69.9,60.3,67.1,62.9,58.5,94,80,60,30.12,30.01,5,0,16,0.00
2013-12-21,83.9,73.9,66.9,72.0,68.9,66.0,100,86,61,30.05,29.93,8,1,22,0.00
2013-12-22,82.3,74.0,68.9,74.8,70.1,-99.9,100,91,75,30.05,29.98,11,3,27,0.00
2013-12-23,81.4,74.1,68.8,76.1,72.8,68.8,100,96,83,30.09,30.01,11,2,22,0.00
2013-12-24,72.8,61.8,51.3,72.8,49.7,29.7,100,70,27,30.20,30.05,10,4,21,0.00
2013-12-25,73.9,60.4,47.1,58.5,47.7,33.6,72,63,54,30.19,30.05,5,1,17,0.00
2013-12-26,76.7,65.9,58.9,62.3,59.4,55.5,99,81,52,30.14,30.02,3,0,14,0.00
2013-12-27,69.2,64.5,60.4,66.0,62.1,57.9,98,92,83,30.18,30.07,3,1,16,0.02
2013-12-28,76.2,69.9,64.2,71.4,68.0,63.9,100,94,82,30.14,29.91,4,1,16,0.00
2013-12-29,74.4,69.6,63.2,73.8,69.3,63.2,100,99,97,29.95,29.82,9,2,21,0.34
2013-12-30,67.4,62.3,58.9,63.2,60.3,55.2,100,94,78,30.13,29.94,4,0,14,0.01
2013-12-31,60.9,60.3,59.9,55.2,54.0,52.1,83,80,75,30.19,30.09,0,0,8,0.00